map of CHR home
Great Circle Mapper logo
CHR - Airport
Location
City:  Châteauroux/Déols, France
Name:Marcel Dassault
ICAO / IATA:LFLX / CHR

Details
Type:Airport (Aerodrome, Airfield)
Use:Public/Civil
Latitude:46°51'37"N (46.860278)
Longitude:1°43'16"E (1.721111)
Elevation:529 ft (161 m)
Runways:1
Longest:11483 × 148 ft (3500 × 45 m), paved

Time
Time Zone:UTC+1 (DST+2)
Local Time:

Weather
METAR:LFLX 250330Z AUTO 00000KT 0650 R21/1200U FG BKN005 BKN009 07/07 Q1019
TAF:LFLX 241100Z 2412/2518 14005KT CAVOK
BECMG 2502/2506 OVC014

Related Locations
Nearby:
Farthest:CHT: 12203 mi / 19638 km
Waitangi [Tuuta], Chatham Islands, NZ

Find:

   beyond  
but within

Other Information
Maps:
NOTAMs:
Links:
Sources:

  
flag of France   

Sectional Chart

Flight Planning
at skyvector.com

Satellite Image

Google Maps Satellite View

 

Copyright © 2004-2014 Karl L. Swartz. All rights reserved.
The Great Circle Mapper name and logo are trademarks of the Great Circle Mapper.
All other trademarks mentioned herein belong to their respective owners.
Please see credits for attibutions and further copyright information.

  Follow gcmap on Facebook Follow gcmap on Twitter

hCard Microformat

Geo Microformat